Weather History for Wahoo, NE

Change the Weather History Date:

Saturday, October 25, 2014

  Actual Average Record
Temperature  
Mean Temperature 60 °F -  
Max Temperature 73 °F 63 °F 81 °F (1989)
Min Temperature 46 °F 36 °F 21 °F (1975)
Degree Days  
Heating Degree Days 6    
Growing Degree Days 10 (Base 50)    
Moisture  
Dew Point 42 °F    
Average Humidity 60    
Maximum Humidity 88    
Minimum Humidity 25    
Precipitation  
Precipitation 0.00 in - - ()
Sea Level Pressure  
Sea Level Pressure 30.06 in    
Wind  
Wind Speed 5 mph (NNE)    
Max Wind Speed 12 mph    
Max Gust Speed -    
Visibility 10 miles    
Events      
Averages and records for this station are not official NWS values.
T = Trace of Precipitation, MM = Missing Value Source: NWS Daily Summary

Daily Weather History Graph

Daily Weather History Graph

Search for Another Location

Airport:

Trip Planner

Search our weather history database for the weather conditions in past years. The results will help you decide how hot, cold, wet, or windy it might be!

Date:

Astronomy

Oct. 25, 2014 Rise Set
Actual Time 7:49 AM CDT 6:30 PM CDT
Civil Twilight 7:21 AM CDT 6:59 PM CDT
Nautical Twilight 6:48 AM CDT 7:31 PM CDT
Astronomical Twilight 6:16 AM CDT 8:03 PM CDT
Moon 9:30 AM CDT (10/25) 7:53 PM CDT (10/25)
Length of Visible Light 11h 37m
Length of Day
10h 41m
Waxing Crescent, 3% of the Moon is Illuminated
Oct 25
Waxing Crescent
Oct 30
First Quarter
Nov 6
Full
Nov 14
Last Quarter
Nov 22
New

Hourly Weather History & Observations

Time (CDT) Temp. Windchill Dew Point Humidity Pressure Visibility Wind Dir Wind Speed Gust Speed Precip Events Conditions
12:15 AM 51.3 °F - 45.3 °F 80% 30.01 in 10.0 mi Calm Calm - N/A   Clear
12:35 AM 50.5 °F - 45.5 °F 83% 30.01 in 10.0 mi North 8.1 mph - N/A   Clear
12:55 AM 50.0 °F - 44.8 °F 82% 30.01 in 10.0 mi North 5.8 mph - N/A   Clear
1:15 AM 50.5 °F - 45.0 °F 81% 30.01 in 10.0 mi North 4.6 mph - N/A   Clear
1:35 AM 49.1 °F - 44.4 °F 84% 30.01 in 10.0 mi NNW 4.6 mph - N/A   Clear
1:55 AM 48.6 °F - 44.6 °F 86% 30.02 in 10.0 mi NNW 3.5 mph - N/A   Clear
2:15 AM 48.0 °F - 44.2 °F 87% 30.02 in 10.0 mi NNW 3.5 mph - N/A   Clear
2:35 AM 47.7 °F - 43.9 °F 87% 30.02 in 10.0 mi NNW 4.6 mph - N/A   Clear
2:55 AM 48.4 °F - 44.4 °F 86% 30.02 in 10.0 mi NW 4.6 mph - N/A   Clear
3:15 AM 48.6 °F - 44.4 °F 86% 30.03 in 10.0 mi NW 5.8 mph - N/A   Clear
3:35 AM 48.9 °F - 44.8 °F 86% 30.02 in 10.0 mi NNW 4.6 mph - N/A   Clear
3:55 AM 48.9 °F - 45.0 °F 86% 30.03 in 10.0 mi WNW 4.6 mph - N/A   Clear
4:15 AM 48.6 °F - 45.0 °F 87% 30.04 in 10.0 mi NW 4.6 mph - N/A   Clear
4:35 AM 48.6 °F - 43.9 °F 84% 30.04 in 10.0 mi NNW 5.8 mph - N/A   Clear
4:55 AM 49.1 °F - 43.9 °F 82% 30.05 in 10.0 mi NNW 4.6 mph - N/A   Clear
5:15 AM 48.0 °F - 43.2 °F 83% 30.05 in 10.0 mi North 6.9 mph - N/A   Clear
5:35 AM 48.0 °F - 43.7 °F 85% 30.05 in 10.0 mi NNW 6.9 mph - N/A   Clear
5:55 AM 47.3 °F - 43.2 °F 86% 30.06 in 10.0 mi NNW 4.6 mph - N/A   Clear
6:15 AM 46.6 °F - 42.8 °F 87% 30.06 in 10.0 mi NNW 6.9 mph - N/A   Clear
6:35 AM 47.5 °F - 43.7 °F 87% 30.06 in 10.0 mi NNW 5.8 mph - N/A   Clear
6:55 AM 46.4 °F 42.9 °F 43.0 °F 88% 30.07 in 10.0 mi NNW 6.9 mph - N/A   Clear
7:15 AM 46.6 °F - 43.0 °F 87% 30.07 in 10.0 mi NNW 5.8 mph - N/A   Clear
7:35 AM 46.9 °F - 43.0 °F 86% 30.08 in 10.0 mi NNW 5.8 mph - N/A   Clear
7:55 AM 46.6 °F - 42.6 °F 86% 30.09 in 10.0 mi NNW 4.6 mph - N/A   Clear
8:15 AM 47.3 °F - 42.8 °F 84% 30.10 in 10.0 mi NNW 5.8 mph - N/A   Clear
8:35 AM 48.9 °F - 43.3 °F 81% 30.11 in 10.0 mi NNW 4.6 mph - N/A   Clear
8:55 AM 50.2 °F - 43.5 °F 78% 30.12 in 10.0 mi NNW 6.9 mph - N/A   Clear
9:15 AM 51.4 °F - 44.6 °F 77% 30.12 in 10.0 mi North 6.9 mph - N/A   Clear
9:35 AM 53.4 °F - 45.7 °F 75% 30.13 in 10.0 mi North 4.6 mph - N/A   Clear
9:55 AM 55.6 °F - 46.4 °F 71% 30.13 in 10.0 mi North 4.6 mph - N/A   Clear
10:15 AM 57.7 °F - 46.0 °F 65% 30.13 in 10.0 mi NE 4.6 mph - N/A   Clear
10:35 AM 61.5 °F - 42.8 °F 50% 30.12 in 10.0 mi ENE 6.9 mph - N/A   Clear
10:55 AM 63.5 °F - 39.4 °F 41% 30.12 in 10.0 mi East 11.5 mph - N/A   Clear
11:15 AM 64.2 °F - 39.9 °F 41% 30.12 in 10.0 mi East 8.1 mph - N/A   Clear
11:35 AM 65.1 °F - 39.6 °F 39% 30.12 in 10.0 mi ENE 9.2 mph - N/A   Clear
11:55 AM 66.2 °F - 39.6 °F 38% 30.13 in 10.0 mi East 9.2 mph - N/A   Clear
12:15 PM 68.0 °F - 36.9 °F 32% 30.12 in 10.0 mi East 9.2 mph - N/A   Clear
12:35 PM 68.9 °F - 36.0 °F 30% 30.12 in 10.0 mi East 4.6 mph - N/A   Clear
12:55 PM 70.2 °F - 36.1 °F 29% 30.12 in 10.0 mi NE 4.6 mph - N/A   Clear
1:15 PM 70.3 °F - 35.4 °F 28% 30.11 in 10.0 mi ENE 9.2 mph - N/A   Clear
1:35 PM 71.1 °F - 35.8 °F 27% 30.11 in 10.0 mi Calm Calm - N/A   Clear
1:55 PM 71.6 °F - 36.5 °F 28% 30.10 in 10.0 mi ENE 3.5 mph - N/A   Clear
2:15 PM 72.3 °F - 36.3 °F 27% 30.09 in 10.0 mi ENE 5.8 mph - N/A   Clear
2:35 PM 72.7 °F - 35.2 °F 25% 30.08 in 10.0 mi ENE 4.6 mph - N/A   Clear
2:55 PM 73.4 °F - 36.7 °F 26% 30.08 in 10.0 mi East 4.6 mph - N/A   Clear
3:15 PM 73.6 °F - 37.8 °F 27% 30.07 in 10.0 mi ENE 6.9 mph - N/A   Clear
3:35 PM 73.4 °F - 37.2 °F 27% 30.07 in 10.0 mi East 5.8 mph - N/A   Clear
3:55 PM 73.6 °F - 38.1 °F 28% 30.07 in 10.0 mi East 8.1 mph - N/A   Clear
4:15 PM 73.4 °F - 37.9 °F 28% 30.06 in 10.0 mi ENE 8.1 mph - N/A   Clear
4:35 PM 73.4 °F - 38.8 °F 29% 30.05 in 10.0 mi East 6.9 mph - N/A   Clear
4:55 PM 72.9 °F - 39.7 °F 30% 30.05 in 10.0 mi ENE 5.8 mph - N/A   Clear
5:15 PM 72.1 °F - 40.8 °F 32% 30.05 in 10.0 mi East 6.9 mph - N/A   Clear
5:35 PM 71.2 °F - 40.1 °F 32% 30.04 in 10.0 mi East 6.9 mph - N/A   Clear
5:55 PM 69.1 °F - 42.8 °F 39% 30.04 in 10.0 mi East 5.8 mph - N/A   Clear
6:15 PM 65.8 °F - 43.0 °F 43% 30.04 in 10.0 mi ENE 5.8 mph - N/A   Clear
6:35 PM 63.0 °F - 43.0 °F 48% 30.03 in 10.0 mi ENE 4.6 mph - N/A   Clear
6:55 PM 63.1 °F - 41.9 °F 46% 30.03 in 10.0 mi NE 3.5 mph - N/A   Clear
7:15 PM 61.5 °F - 41.0 °F 47% 30.03 in 10.0 mi NE 4.6 mph - N/A   Clear
7:35 PM 59.7 °F - 40.8 °F 50% 30.04 in 10.0 mi NE 4.6 mph - N/A   Clear
7:55 PM 57.4 °F - 41.0 °F 54% 30.04 in 10.0 mi NNE 5.8 mph - N/A   Clear
8:15 PM 56.7 °F - 41.0 °F 56% 30.03 in 10.0 mi NNE 6.9 mph - N/A   Clear
8:35 PM 54.1 °F - 41.5 °F 62% 30.04 in 10.0 mi NNE 4.6 mph - N/A   Clear
8:55 PM 54.7 °F - 41.4 °F 61% 30.04 in 10.0 mi NE 5.8 mph - N/A   Clear
9:15 PM 56.7 °F - 41.2 °F 56% 30.04 in 10.0 mi NE 5.8 mph - N/A   Clear
9:35 PM 56.5 °F - 41.2 °F 57% 30.03 in 10.0 mi ENE 5.8 mph - N/A   Clear
9:55 PM 55.2 °F - 41.4 °F 60% 30.02 in 10.0 mi ENE 6.9 mph - N/A   Clear
10:15 PM 55.2 °F - 42.1 °F 61% 30.02 in 10.0 mi East 6.9 mph - N/A   Clear
10:35 PM 54.1 °F - 42.4 °F 65% 30.01 in 10.0 mi East 5.8 mph - N/A   Clear
10:55 PM 53.8 °F - 42.3 °F 65% 30.01 in 10.0 mi East 4.6 mph - N/A   Clear
11:15 PM 53.2 °F - 41.9 °F 65% 30.01 in 10.0 mi East 5.8 mph - N/A   Clear
11:35 PM 52.7 °F - 42.1 °F 67% 30.00 in 10.0 mi East 5.8 mph - N/A   Clear
11:55 PM 53.1 °F - 42.1 °F 66% 30.00 in 10.0 mi East 3.5 mph - N/A   Clear